Vorticity
nan nan nan nan nan nan nan nan nan nan nan nan nan nan nan nan nan nan nan nan nan nan nan nan nan nan nan nan nan nan nan nan
nan 7 6 6 1 3 7 6 6 4 6 6 7 12 14 15 10 9 9 7 8 7 6 7 7 7 7 7 7 8 6 nan
nan 6 6 8 7 4 7 5 6 6 6 5 11 10 5 7 9 11 11 12 10 8 7 8 8 8 9 7 7 7 8 nan
nan 6 6 9 7 8 6 7 7 6 6 5 9 6 7 8 8 12 15 12 11 11 11 9 6 7 12 9 7 7 7 nan
nan 8 6 8 8 10 7 7 6 6 4 8 8 9 9 9 9 10 11 11 11 13 13 11 7 5 5 10 8 6 6 nan
nan 7 7 8 8 7 7 8 7 7 5 8 8 7 6 8 7 6 8 7 8 10 10 10 12 10 6 4 6 6 5 nan
nan 7 8 8 9 8 8 7 7 6 8 8 7 7 7 7 7 8 8 7 9 9 6 6 10 12 12 9 4 5 5 nan
nan 7 8 8 8 8 9 8 7 8 7 8 6 8 8 7 7 8 8 9 7 8 8 8 8 8 10 13 9 7 6 nan
nan 7 7 7 9 8 9 7 7 8 8 6 8 9 7 8 9 8 6 6 9 9 8 12 11 7 9 11 13 10 5 nan
nan 7 7 7 10 9 9 8 8 8 8 7 7 6 10 11 10 8 7 7 8 8 10 10 8 9 10 9 10 13 12 nan
nan 7 7 8 10 9 8 9 9 8 8 7 8 7 9 10 8 6 7 9 7 7 8 8 9 9 8 9 8 9 13 nan
nan 7 7 10 10 8 9 8 8 8 9 7 7 10 6 9 9 9 10 9 8 7 7 8 8 10 11 10 10 7 9 nan
nan 8 8 10 8 9 8 8 9 9 6 6 9 8 9 11 10 9 10 9 8 8 9 9 8 7 12 14 12 11 9 nan
nan 8 9 10 10 9 9 8 9 8 8 6 6 7 10 9 9 9 9 9 9 9 9 10 10 8 5 10 14 14 16 nan
nan 8 8 7 11 11 9 10 9 7 8 7 5 8 8 9 9 10 10 11 9 9 10 9 9 10 10 7 6 6 11 nan
nan 7 7 7 10 10 10 11 9 8 8 8 7 7 8 9 9 10 11 11 10 10 10 10 10 8 10 11 5 4 4 nan
nan 6 7 7 8 10 9 10 10 9 7 7 9 9 8 9 9 10 12 11 9 9 10 10 10 11 9 5 9 11 10 nan
nan 8 7 8 8 8 8 9 11 10 9 10 9 9 7 7 10 11 11 10 11 12 13 14 11 10 9 11 9 7 7 nan
nan 9 8 9 8 8 7 8 8 9 10 9 9 10 8 7 9 11 11 10 12 13 13 14 14 15 15 14 11 9 7 nan
nan nan nan nan nan nan nan nan nan nan nan nan nan nan nan nan nan nan nan nan nan nan nan nan nan nan nan nan nan nan nan nan
CAPE
0 0 0 0 0 0 0 0 0 0 0 0 0 0 200 1154 1526 1721 1885 1903 1911 1983 1992 2020 2031 1620 1069 957 943 932 847 899
0 0 0 0 0 0 0 0 0 0 0 0 0 0 98 748 1071 1390 1603 1712 1760 1817 1831 1881 1872 1530 1114 807 779 785 675 903
0 0 0 0 0 0 0 0 0 0 0 0 0 0 0 0 0 95 795 1324 1445 1499 1566 1560 1621 1364 991 776 641 763 799 781
0 0 0 0 0 0 0 0 0 0 0 0 0 0 0 0 0 0 480 965 962 1088 1165 1236 1161 1478 1191 633 645 773 787 723
0 0 0 0 0 0 0 0 0 0 0 0 0 0 0 0 0 0 0 301 1268 1462 1190 870 1223 1383 1279 931 788 813 779 692
0 0 0 0 0 0 0 0 0 0 0 0 0 0 0 0 0 0 0 0 0 809 1468 1241 1197 1208 1364 1147 990 988 895 706
0 0 0 0 0 0 0 0 0 0 0 0 0 0 0 0 0 0 0 0 0 0 477 963 1084 1127 1042 1201 1308 1009 1012 660
0 0 0 0 0 0 0 0 0 0 0 0 0 0 0 0 0 0 0 0 0 0 0 7 240 245 1092 1111 1081 1106 938 883
0 0 0 0 0 0 0 0 0 0 0 0 0 0 0 0 0 0 0 0 0 0 0 0 1 82 306 1117 1106 1007 1072 1145
0 0 0 0 0 0 0 0 0 0 0 0 0 0 0 0 0 0 0 0 0 0 0 0 0 5 89 208 841 1001 886 1007
0 0 0 0 0 0 0 0 0 0 0 0 0 0 8 0 0 4 9 5 3 3 0 0 1 0 3 58 178 659 876 925
0 0 0 0 0 0 0 0 0 0 0 0 0 0 3 2 3 8 26 25 6 1 4 1 1 0 1 0 16 69 581 751
0 0 0 0 0 0 0 0 0 0 0 0 0 0 1 5 10 13 15 20 20 8 17 12 1 0 0 0 0 0 0 463
0 0 0 0 0 0 0 0 0 0 0 0 0 1 13 5 8 8 12 12 12 18 27 24 13 1 10 4 12 0 0 112
0 0 0 0 0 0 0 0 0 0 0 0 2 10 13 13 9 13 10 10 13 9 12 11 11 15 0 17 48 12 14 395
0 0 0 0 0 0 0 0 0 1 2 3 6 10 12 11 20 10 10 10 11 16 19 16 31 17 10 12 4 16 9 26
0 0 0 0 0 0 1 3 4 5 4 6 7 10 12 13 16 9 8 12 14 9 9 14 15 27 22 5 0 0 5 5
0 0 0 0 0 0 1 5 5 4 6 8 10 11 13 19 18 12 12 12 10 9 11 9 7 12 10 32 13 6 1 24
0 0 0 0 0 0 1 2 4 6 9 11 9 10 12 12 14 11 13 10 10 11 13 12 9 17 17 15 20 24 6 3
0 0 0 0 0 0 1 3 5 4 4 9 10 14 17 15 15 12 14 11 11 10 9 10 10 10 6 10 12 5 6 25